sat.trackr.live / text

‹ back to catalog

STARLINK-5656

NORAD 55451 · 2023-015C

PAYLOAD ACTIVE UNKNOWN

§ Identity

Operator
Country
US
Launch date
2023-02-02
Launch site
AFETR
Launch vehicle
Mass (kg)
RCS (m²)

Purposes: comms

External: N2YO · Heavens-Above · Gunter

§ Orbital elements

Epoch: 2026-09-20T13:54:02.947392Z

Period
94.27 min
Inclination
43.0049°
Eccentricity
0.0001497
Mean motion
15.27576768 rev/d
Perigee alt
482.0 km
Apogee alt
484.1 km
Semi-major
6,861.2 km
B*
4.8803e-6
RAAN
308.4531°
Arg perigee
300.9445°
Mean anomaly
59.1259°
Rev number
20,052

§ Raw data

STARLINK-56561 55451U 23015C   26263.57920078 -.00000128  00000+0  48803-5 0  99972 55451  43.0049 308.4531 0001497 300.9445  59.1259 15.27576768200526

JSON: /api/v1/satellites/55451 · /tle

For live sub-satellite position, see the globe view (requires WebGL).

§ Visibility from observer

Set your observer location to see the next 7 days of passes ≥ 10°. The values pass through the URL so the page stays shareable.

No JS? Fill the form by hand. The geolocation button needs JavaScript.